Theta_e
308 306 306 306 306 309 311 312 312 311 311 312 311 312 312 312 315 314 315 317 319 321 319 351 351 349 354 354 353 352 351 350 341 337 335 334 335 336 341 341 343 342 344 342
310 310 307 306 307 308 310 312 310 309 310 312 314 315 313 311 314 315 317 317 317 319 318 327 344 349 350 350 353 353 353 352 344 338 335 336 340 343 344 343 346 346 346 346
312 311 309 307 307 308 308 309 311 311 311 311 312 316 316 314 314 316 318 319 318 320 320 330 331 347 345 350 352 349 351 352 347 339 336 337 341 341 344 344 344 345 345 345
310 310 311 309 308 307 308 308 310 312 312 313 315 317 313 314 314 314 315 317 319 318 320 323 336 339 343 344 351 350 350 350 349 341 337 340 340 342 346 346 344 346 348 347
313 311 310 311 311 309 308 308 311 311 313 314 315 315 315 312 314 314 314 317 318 318 319 321 330 336 339 342 344 348 349 348 348 342 339 340 339 344 343 344 346 342 339 334
313 312 311 309 310 310 310 310 310 310 311 316 314 315 315 312 315 316 315 316 318 318 318 320 320 324 328 334 340 336 344 347 347 342 340 342 339 340 346 345 343 336 334 333
311 314 313 310 309 310 310 309 309 313 314 316 313 315 315 314 313 313 313 315 318 319 318 319 320 326 328 331 332 333 342 346 346 344 343 340 340 339 341 341 335 333 329 332
310 313 314 312 311 311 312 310 308 309 313 311 312 315 315 315 315 315 316 317 319 319 318 319 320 321 326 328 332 336 340 344 345 345 342 337 338 338 339 338 337 328 328 327
311 309 313 313 314 311 312 314 310 311 312 311 311 313 313 313 314 314 314 315 317 320 317 318 318 321 324 329 332 336 341 342 344 342 340 340 341 338 338 333 332 329 329 330
312 314 313 313 313 313 312 312 315 315 313 317 313 313 314 314 314 314 319 312 316 319 317 317 318 321 326 332 336 337 341 341 344 342 343 341 340 339 332 334 335 333 334 335
312 313 311 311 316 316 314 314 312 313 311 314 315 313 313 313 318 313 314 322 316 317 316 319 333 338 338 338 337 338 341 343 343 343 341 342 341 338 332 333 336 335 334 333
311 312 311 310 311 312 313 313 313 313 314 314 312 310 320 323 324 322 325 329 318 316 320 331 339 342 339 341 342 342 344 345 343 340 340 338 337 336 336 335 333 329 327 325
310 313 310 310 314 313 314 314 313 313 316 316 317 316 326 328 328 330 328 323 322 333 335 338 339 336 339 341 343 344 342 341 340 339 338 337 337 336 335 333 327 324 324 319
311 311 312 313 316 313 317 315 313 314 316 316 319 324 329 332 333 331 331 333 339 338 337 334 334 335 336 338 339 339 339 339 339 338 337 336 334 332 330 325 320 318 315 314
311 313 314 313 312 313 313 314 314 315 314 317 318 325 325 327 330 335 335 338 337 334 332 332 332 331 333 337 337 335 336 337 336 336 334 330 324 321 320 317 315 313 311 309
305 312 314 314 312 313 313 312 312 314 314 317 320 323 321 325 331 335 334 332 330 329 327 328 328 328 330 332 331 333 333 333 333 331 329 322 319 317 314 313 310 308 308 308
307 309 311 314 318 314 315 313 313 316 315 318 318 323 321 324 329 326 326 326 324 323 323 324 324 324 326 328 331 331 329 327 327 324 317 315 312 312 309 308 308 309 309 307
307 309 312 315 316 319 317 313 313 317 319 320 322 320 318 318 318 320 321 320 320 319 319 319 321 321 324 328 329 328 324 322 321 316 313 310 309 308 308 309 309 308 307 308
309 309 313 317 320 319 318 318 317 317 321 320 321 317 315 314 314 312 314 316 314 314 314 314 316 321 325 327 321 321 318 317 314 310 308 307 308 308 309 309 308 308 308 309
311 310 313 321 318 320 320 319 317 317 322 319 316 316 317 316 318 314 311 315 314 314 315 315 321 319 322 318 317 321 315 311 308 307 307 308 308 309 309 309 309 309 309 309
311 309 315 317 321 320 315 312 318 318 315 317 315 316 318 316 315 311 310 311 313 314 313 313 315 316 314 314 316 313 309 307 307 307 308 308 308 308 309 309 309 309 310 310
310 309 310 314 317 318 308 316 321 317 315 315 314 313 312 312 311 310 309 310 313 313 314 313 312 311 311 311 310 307 307 307 307 308 308 308 308 308 309 308 308 309 309 309
309 307 307 309 309 304 309 313 311 311 312 312 314 312 311 310 309 308 307 308 309 311 311 311 311 309 308 307 306 307 307 307 307 307 308 308 308 307 307 308 308 308 308 308
306 303 309 310 307 307 308 310 309 309 309 309 310 310 309 308 308 307 306 306 307 309 310 309 308 307 306 306 306 306 306 306 306 307 307 306 306 306 306 305 305 305 305 305
303 302 305 308 306 307 307 307 307 306 306 306 306 306 306 306 306 311 304 305 308 308 307 307 306 305 305 305 305 305 305 305 306 305 305 305 304 304 304 304 303 303 303 303
300 302 305 305 304 306 306 306 306 306 305 305 304 304 304 304 304 307 303 307 307 306 305 304 304 304 304 304 304 303 303 304 305 304 303 303 303 302 302 302 302 301 299 300
Wind_Speed
5 3 7 11 14 15 12 12 9 4 9 4 7 13 11 10 9 11 20 28 23 18 15 33 31 25 40 36 35 35 36 32 36 35 35 32 31 27 22 20 18 18 18 19
3 14 11 12 14 15 14 13 9 6 10 7 8 10 10 10 13 19 20 20 21 16 15 26 36 43 33 32 34 34 35 33 34 36 36 32 30 26 23 20 21 19 23 23
10 10 7 12 10 13 14 12 8 8 7 15 11 11 8 5 11 23 29 26 21 25 18 23 33 41 38 38 34 35 35 35 34 36 37 35 30 26 24 22 22 21 20 18
9 10 17 11 14 12 15 9 9 5 5 5 2 5 6 8 8 9 17 25 29 27 27 24 29 38 41 38 36 35 35 33 34 36 37 34 26 23 22 23 20 22 15 10
7 7 5 12 15 7 11 7 8 6 6 3 5 3 6 5 8 12 14 30 30 26 29 30 31 32 35 36 36 37 36 34 35 37 38 29 21 21 19 20 15 3 3 6
15 14 6 7 9 14 2 5 7 3 3 5 9 7 4 5 13 16 8 20 32 25 29 27 31 35 37 36 38 36 38 39 38 37 37 24 21 17 13 15 12 11 11 12
5 5 4 7 4 10 8 7 2 8 6 4 9 8 12 6 6 6 10 19 29 28 30 34 38 40 41 40 40 40 42 42 40 36 30 20 16 13 9 9 6 9 6 7
3 4 6 6 10 6 13 10 5 6 6 9 5 9 12 22 15 13 4 25 27 29 33 37 41 41 42 42 43 42 41 38 33 27 22 17 15 11 11 8 3 16 19 14
3 5 1 8 6 10 4 8 8 2 3 4 4 11 7 7 7 6 9 20 32 32 32 37 39 42 45 44 42 40 37 31 28 23 23 19 15 10 9 2 10 5 17 20
2 7 2 4 4 6 6 9 5 3 3 5 7 19 10 7 13 11 5 10 30 31 28 32 35 39 41 42 39 33 32 30 26 26 15 13 11 15 11 17 25 20 23 20
4 4 4 3 5 12 6 4 4 5 4 4 5 9 6 11 2 11 10 9 17 26 27 32 31 30 30 31 32 33 31 28 24 17 14 12 15 15 16 17 27 25 19 13
4 3 5 9 3 3 6 7 5 6 5 3 2 5 3 4 5 5 7 11 11 20 29 31 32 35 35 36 35 31 29 27 24 19 20 20 17 18 24 27 23 18 16 13
2 3 4 5 2 4 3 6 5 3 3 3 1 5 3 6 5 6 6 12 22 29 31 32 37 38 40 40 39 36 32 31 29 29 27 24 24 26 23 19 17 14 9 6
21 7 7 6 3 2 5 7 7 6 4 7 6 4 8 6 3 5 10 23 31 34 36 37 39 40 42 43 40 40 37 34 32 30 29 28 25 22 18 15 13 10 7 3
4 5 8 15 13 7 6 9 5 13 7 9 6 2 7 8 4 5 19 27 32 32 34 43 44 45 45 46 44 42 38 35 32 27 28 27 24 20 17 14 11 8 5 2
2 2 2 10 15 14 10 11 8 4 5 10 3 4 4 8 1 14 19 30 30 31 36 43 46 48 50 50 48 45 41 37 29 26 26 24 20 17 15 11 8 6 5 6
2 2 2 3 3 10 6 15 10 5 6 10 9 5 8 11 9 12 22 29 30 34 40 43 45 47 49 48 46 41 37 34 31 28 25 22 18 15 13 11 10 9 9 10
2 2 2 2 4 3 3 15 15 7 7 11 14 11 13 10 23 21 32 33 32 35 39 40 44 47 48 46 42 39 35 30 28 27 24 20 15 13 13 12 11 12 12 13
7 2 2 1 2 4 8 4 6 13 7 6 14 14 19 18 29 22 22 39 37 39 38 38 44 48 48 44 41 38 34 29 26 25 22 19 15 14 14 13 13 15 15 16
5 5 2 2 3 3 5 6 13 4 5 8 12 15 19 13 6 4 17 40 41 41 42 43 45 45 43 40 36 33 31 27 25 22 21 18 16 14 13 14 15 16 15 15
6 4 7 5 3 4 12 19 15 2 4 14 14 15 25 9 8 25 30 37 43 45 44 43 44 42 39 34 30 32 30 27 24 21 18 17 16 14 14 14 14 13 12 10
5 6 4 4 5 5 26 18 2 5 12 20 16 12 27 35 35 31 33 41 47 46 43 40 43 41 35 31 28 31 28 26 21 19 18 17 16 16 15 13 13 11 10 7
4 3 4 3 2 12 19 10 16 25 23 18 24 28 35 31 45 35 29 38 43 45 43 39 39 37 31 28 26 28 27 22 20 19 19 18 17 17 16 14 14 11 10 8
4 7 3 2 4 13 22 20 26 31 30 28 28 29 32 38 42 42 30 35 45 44 41 38 37 35 32 26 23 25 24 21 19 20 20 19 18 19 19 18 16 15 16 15
3 10 7 4 7 9 25 21 26 35 38 39 36 35 34 37 38 49 27 36 43 41 39 36 36 34 32 28 27 24 22 18 19 20 21 21 21 19 19 19 19 17 18 18
9 4 3 3 10 6 15 20 24 32 31 37 41 41 39 40 41 43 31 40 38 37 34 34 34 33 31 28 27 23 19 15 17 22 22 21 20 18 17 16 17 18 18 16
Wind_Direction
207 167 203 205 213 230 238 268 282 303 300 331 248 258 252 248 243 240 241 245 243 245 220 205 212 220 207 205 205 203 208 205 210 210 213 217 219 215 214 219 218 212 206 209
248 243 227 208 215 224 229 229 243 282 288 292 293 290 257 215 216 235 240 240 229 224 210 204 205 206 218 216 210 208 212 212 210 214 215 218 220 218 221 217 215 214 219 217
234 240 235 203 212 212 220 224 223 236 276 288 292 284 232 221 211 221 233 243 237 218 211 202 204 211 214 216 213 213 217 214 214 214 214 219 224 236 226 221 228 239 246 249
256 261 221 219 225 212 236 210 226 239 221 239 157 287 249 183 206 211 212 225 237 221 215 207 202 205 212 218 217 215 212 214 216 216 216 218 241 232 224 231 234 244 235 214
261 286 237 231 231 184 242 188 204 235 211 207 246 302 267 171 200 213 209 214 224 221 207 202 198 197 197 203 203 204 208 214 216 219 217 228 233 226 237 229 217 203 200 194
252 223 253 220 238 208 147 160 183 236 200 233 221 209 267 191 202 217 210 207 216 208 205 203 202 189 189 193 192 197 205 210 215 219 218 232 225 240 230 229 226 62 100 121
293 210 245 202 218 196 202 143 198 213 202 237 184 223 248 259 261 216 181 192 213 208 204 204 201 199 193 190 191 198 205 211 215 218 222 223 224 242 222 182 117 61 20 78
317 322 177 200 207 186 186 178 174 193 170 223 194 223 234 229 249 258 224 195 197 204 204 202 202 198 198 194 197 203 207 214 216 218 219 226 221 229 161 145 72 80 103 145
311 272 203 239 280 176 210 202 210 196 189 114 178 257 298 224 222 224 234 186 195 207 198 196 198 197 199 199 201 205 208 210 211 205 216 221 210 193 138 340 129 105 174 186
269 285 302 218 250 267 169 163 191 242 196 178 180 231 226 188 208 208 214 200 199 203 198 193 190 192 197 199 201 205 205 200 199 206 207 204 206 156 166 157 168 179 189 175
258 231 279 212 191 206 181 193 170 151 181 175 172 229 204 237 163 187 200 213 203 197 191 184 172 171 168 171 178 185 187 187 186 182 181 189 185 171 164 161 163 163 170 175
237 269 265 242 250 92 236 191 190 179 238 244 263 257 252 233 209 233 221 202 180 184 173 165 150 148 156 160 164 171 169 165 165 162 148 134 138 152 147 147 154 151 158 162
33 234 300 315 87 138 240 190 187 105 103 248 197 280 308 106 144 213 219 171 148 147 146 138 138 149 154 156 154 152 153 155 149 142 135 136 142 145 143 147 146 151 160 169
274 199 225 240 136 149 271 207 183 197 138 248 282 319 15 36 119 121 137 140 139 136 140 137 140 148 150 150 151 151 149 147 146 143 145 142 141 143 142 142 145 147 151 157
347 223 216 244 255 216 244 275 186 206 195 175 265 52 352 346 336 133 140 133 127 131 133 134 141 144 146 146 147 146 146 145 144 149 144 138 140 139 138 143 144 146 133 91
298 272 273 271 247 229 222 234 239 209 228 141 331 327 269 305 284 109 107 118 119 129 122 130 139 142 145 146 146 145 144 141 147 145 145 140 141 136 138 137 127 114 87 63
237 229 247 278 131 160 235 217 193 162 194 130 190 201 40 14 106 103 103 111 113 116 123 131 134 138 142 143 143 142 141 140 140 141 135 134 130 129 123 112 106 91 80 80
247 204 241 282 154 183 281 166 170 156 139 115 112 107 74 61 65 80 110 107 109 114 122 129 135 140 141 140 140 138 137 139 136 132 130 127 127 122 111 104 95 86 86 89
229 213 258 245 263 131 47 108 154 149 85 101 122 129 113 89 78 46 88 115 112 117 120 125 135 138 136 136 135 135 135 135 132 128 126 120 114 110 106 101 95 90 92 90
326 232 248 274 73 85 1 28 7 96 115 148 153 146 127 133 115 99 104 123 120 123 130 131 135 134 133 133 137 137 131 131 125 122 118 114 109 105 104 101 99 95 97 90
340 354 11 347 28 98 11 337 318 140 217 159 167 150 135 137 130 124 116 113 127 131 130 131 131 129 127 132 137 130 128 124 120 118 114 112 110 106 102 105 102 97 97 94
339 339 351 331 19 18 336 322 78 111 121 139 147 127 116 122 118 114 114 118 128 130 131 131 128 125 128 132 137 127 124 117 117 115 114 112 109 105 100 100 98 94 90 88
12 18 306 27 354 299 325 50 79 108 115 126 136 126 128 126 116 115 110 120 125 131 131 130 125 122 124 128 127 124 112 116 117 116 112 109 106 102 96 91 85 83 77 70
331 9 335 264 17 359 17 61 86 100 99 106 120 121 121 117 122 121 114 121 123 128 127 127 125 124 122 121 119 111 111 113 117 114 111 109 105 100 94 86 81 82 75 66
325 313 319 329 356 340 30 53 92 98 100 95 96 103 105 113 112 135 130 119 126 128 129 130 125 122 117 117 110 107 109 116 116 111 109 109 106 99 95 91 87 80 71 58
336 328 349 341 343 27 53 76 94 103 102 97 95 96 98 103 107 124 124 126 128 126 126 122 118 117 115 112 108 106 105 111 116 115 113 109 105 102 97 93 92 86 73 66